Home   Weather   Santander   Past weeks
Flag for Spain

Past Weather in Santander, Spain — Yesterday and Last 2 Weeks

Now
55 °F

Passing clouds.


Feels Like: 53 °F
Forecast: 68 / 43 °F
Wind: 8 mph from Northeast

Location: Santander / Parayas

Current Time: Apr 3, 2020 at 1:32:30 pm

Latest Report: Apr 3, 2020 at 1:00 pm


Visibility: N/A

Pressure: 30.12 "Hg

Humidity: 59%

Dew Point: 41 °F

Location of SantanderLocation

Past Weather in Santander — Graph

°F

Santander Temperature Yesterday

Maximum temperature yesterday: 57 °F (at 11:30 am)
Minimum temperature yesterday: 52 °F (at 9:00 pm)
Average temperature yesterday: 54 °F

High & Low Weather Summary for the Past Weeks

 TemperatureHumidityPressure
High64 °F (Mar 21, 3:00 pm)100% (Mar 19, 11:00 am)30.27 "Hg (Mar 19, 11:00 am)
Low37 °F (Mar 31, 5:00 am)50% (Mar 26, 9:00 pm)29.77 "Hg (Mar 21, 4:30 pm)
Average52 °F81%30.01 "Hg
* Reported Mar 19 11:00 am — Apr 3 12:00 pm, Santander. Weather by CustomWeather, © 2020

Note: Actual official high and low records may vary slightly from our data, if they occured in-between our weather recording intervals... More about our weather records

Santander Weather History for the Previous 24 Hours

Scroll right to see more
 ConditionsComfort  
Time TempWeatherWind HumidityBarometerVisibility
12:00 pm
Fri, Apr 3
54 °FScattered clouds.6 mph67%30.12 "HgN/A
11:30 am54 °FScattered clouds.2 mph72%30.15 "HgN/A
11:00 am54 °FScattered clouds.2 mph77%30.12 "HgN/A
10:30 am50 °FPartly sunny.2 mph82%30.12 "HgN/A
10:00 am48 °FPartly sunny.No wind87%30.12 "HgN/A
9:30 am46 °FPartly sunny.1 mph87%30.12 "HgN/A
9:00 am45 °FPartly sunny.No wind93%30.12 "HgN/A
8:30 am45 °FScattered clouds.2 mph93%30.09 "HgN/A
8:00 am45 °FScattered clouds.No wind87%30.09 "HgN/A
7:30 am46 °FPassing clouds.No wind87%30.09 "HgN/A
7:00 am46 °FPassing clouds.2 mph87%30.09 "HgN/A
6:30 am46 °FPassing clouds.1 mph87%30.09 "HgN/A
6:00 am46 °FPassing clouds.3 mph87%30.09 "HgN/A
5:30 am48 °FPassing clouds.1 mph82%30.09 "HgN/A
5:00 am48 °FOvercast.2 mph82%30.09 "HgN/A
4:30 am50 °FMostly cloudy.2 mph76%30.12 "Hg6 mi
4:00 am50 °FPassing clouds.3 mph76%30.12 "Hg4 mi
3:30 am50 °FPartly cloudy.3 mph76%30.12 "Hg5 mi
3:00 am50 °FPassing clouds.2 mph76%30.12 "Hg5 mi
1:30 am52 °FOvercast.2 mph67%30.12 "Hg6 mi
1:00 am52 °FOvercast.3 mph72%30.12 "Hg4 mi
12:30 am52 °FOvercast.5 mph72%30.12 "Hg6 mi
12:00 am52 °FPassing clouds.5 mph72%30.12 "Hg5 mi
11:30 pm
Thu, Apr 2
52 °FPassing clouds.5 mph67%30.12 "Hg4 mi
11:00 pm52 °FPartly cloudy.5 mph72%30.12 "HgN/A
10:30 pm52 °FPartly cloudy.5 mph72%30.12 "HgN/A
10:00 pm52 °FPassing clouds.5 mph72%30.12 "HgN/A
9:30 pm52 °FPassing clouds.6 mph72%30.09 "HgN/A
9:00 pm52 °FPassing clouds.5 mph67%30.09 "HgN/A
8:30 pm54 °FScattered clouds.6 mph63%30.09 "HgN/A
8:00 pm54 °FPartly sunny.7 mph63%30.09 "HgN/A
7:30 pm55 °FPartly sunny.7 mph55%30.07 "HgN/A
7:00 pm55 °FScattered clouds.7 mph59%30.07 "HgN/A
6:30 pm55 °FScattered clouds.6 mph59%30.07 "HgN/A
6:00 pm55 °FScattered clouds.7 mph63%30.07 "HgN/A
5:30 pm57 °FScattered clouds.7 mph59%30.07 "HgN/A
5:00 pm55 °FScattered clouds.7 mph67%30.07 "HgN/A
4:30 pm57 °FScattered clouds.7 mph63%30.07 "HgN/A
4:00 pm57 °FPartly sunny.7 mph59%30.07 "HgN/A
3:30 pm57 °FPartly sunny.7 mph63%30.04 "HgN/A
3:00 pm57 °FBroken clouds.5 mph67%30.04 "HgN/A
2:30 pm57 °FPartly sunny.6 mph67%30.04 "HgN/A
2:00 pm57 °FBroken clouds.6 mph72%30.04 "HgN/A
1:30 pm55 °FPartly sunny.7 mph77%30.04 "HgN/A
1:00 pm55 °FBroken clouds.8 mph82%30.04 "HgN/A
Weather by CustomWeather, © 2020

See weather overview

Advertising